SCP
0 0 0 0 0 0 0 0 0 0 0 1 3 5 4 3 4 4 4 4 5 5 5 6 8 10 9 8 7 7 7 6 5 5 5 4 3 3 3 3 3 3 3 3
0 0 0 0 0 0 0 0 0 0 0 1 3 4 4 4 4 3 3 4 5 5 6 7 8 9 9 8 8 7 7 6 6 6 5 5 4 3 3 3 3 3 3 3
0 0 0 0 0 0 0 0 0 0 1 2 3 4 4 5 3 3 2 3 4 5 6 8 9 10 9 9 7 6 6 6 6 6 6 6 5 4 3 3 3 4 4 4
0 0 0 0 0 0 0 0 0 1 2 2 2 3 4 4 3 2 2 2 3 4 6 8 10 11 10 9 7 6 6 7 7 7 7 7 6 5 4 3 3 4 4 5
0 0 0 0 0 0 0 0 0 1 2 1 1 2 3 3 3 2 2 2 2 3 5 7 10 11 10 8 6 6 6 7 7 8 8 7 6 5 4 4 4 4 5 5
0 0 0 0 0 0 0 0 0 1 1 1 1 1 2 3 3 3 2 2 2 3 5 6 8 9 9 7 5 5 7 7 7 8 8 8 7 6 5 5 4 4 4 4
0 0 0 0 0 0 0 0 1 1 1 1 1 1 2 2 3 3 3 3 3 4 5 6 6 7 7 6 5 5 6 7 7 7 8 8 7 6 6 5 5 4 4 3
0 0 0 0 0 0 0 0 1 1 1 1 1 1 2 2 2 4 4 3 3 4 5 6 6 7 6 5 4 5 6 6 6 7 8 8 7 7 6 5 4 4 3 3
0 0 0 0 0 0 0 0 0 0 1 1 1 1 2 2 2 3 4 4 4 4 5 5 5 6 6 5 5 5 6 6 6 6 8 8 7 7 6 5 4 4 3 3
0 0 0 0 0 0 0 0 0 1 1 1 1 1 2 3 4 5 5 5 4 4 4 5 5 6 5 5 6 6 6 6 7 7 8 7 7 6 5 4 4 4 3 3
0 0 0 0 0 0 0 0 0 1 1 1 1 1 2 4 5 6 5 5 5 5 4 5 6 6 6 6 6 6 6 7 7 8 7 7 6 5 5 4 4 4 4 3
1 1 1 0 0 0 0 0 0 1 2 2 1 1 3 4 5 5 5 5 5 5 4 4 5 6 6 6 7 7 7 7 7 7 7 6 6 5 5 5 4 4 4 3
1 1 1 1 0 0 0 0 0 1 2 1 1 1 2 4 6 6 7 7 8 7 6 5 5 6 6 7 7 7 7 6 6 6 6 6 6 6 6 6 6 5 5 4
1 1 1 1 0 0 0 0 0 1 1 1 1 2 3 6 10 11 11 12 11 10 8 7 7 6 6 7 7 7 7 7 6 6 7 7 8 8 8 8 7 6 5 4
1 1 1 1 0 0 0 0 0 0 1 1 2 3 6 12 15 13 12 12 11 9 8 7 7 7 7 7 8 8 8 8 7 8 8 9 9 9 9 9 8 6 5 3
1 1 2 1 1 1 0 0 0 1 1 1 3 4 9 14 14 10 8 7 7 6 5 5 7 9 9 9 9 10 9 9 9 9 9 10 10 10 9 9 8 6 4 3
1 2 2 1 1 1 1 1 1 1 1 2 3 4 8 10 8 7 6 6 7 8 7 7 9 12 12 11 11 11 10 10 10 10 10 10 10 9 8 7 7 6 4 3
1 2 2 1 1 1 1 1 1 1 2 3 3 4 5 5 4 5 6 8 10 12 11 10 11 13 13 11 11 11 10 10 10 10 10 10 9 7 6 6 6 5 5 4
1 2 2 2 1 1 1 1 1 1 2 2 3 4 4 3 3 6 7 9 12 13 12 11 12 12 12 11 11 11 11 10 9 9 9 9 7 6 5 4 5 5 5 5
1 1 2 2 1 1 1 1 1 2 2 2 3 5 6 4 4 6 8 10 12 12 11 11 11 11 11 11 10 10 9 8 7 6 6 6 5 4 3 4 4 5 4 4
1 1 1 2 1 1 1 1 2 2 2 2 3 5 6 5 5 7 8 9 10 10 9 9 10 10 10 9 9 8 7 6 5 4 4 4 4 4 4 4 5 4 4 3
1 1 2 2 2 2 2 2 2 3 3 3 3 4 5 6 6 7 7 7 7 7 7 8 8 8 8 8 7 6 5 4 4 4 4 4 4 4 4 5 5 4 3 3
1 1 2 2 3 3 3 3 4 4 4 3 3 3 4 5 5 6 6 6 6 6 6 6 6 7 8 8 6 6 5 5 4 5 5 5 5 4 4 4 4 3 3 2
2 2 3 4 4 4 4 4 4 4 3 3 3 3 4 4 4 4 4 4 4 4 5 5 5 7 8 8 7 6 6 6 5 5 5 5 4 3 3 3 3 2 2 1
2 3 4 5 5 5 5 4 3 3 3 3 2 2 3 4 3 3 3 3 3 4 5 5 5 6 7 8 6 5 5 5 5 5 4 4 3 3 3 2 2 1 1 1
2 2 4 4 5 5 5 4 3 3 3 2 2 3 3 4 3 2 2 2 2 3 5 6 5 5 6 7 5 4 4 4 4 4 4 3 3 2 2 2 1 1 1 0
Wind_Speed
12 12 14 15 16 16 15 13 12 10 9 11 11 9 10 11 11 10 9 8 7 8 8 8 8 9 9 8 7 5 5 4 3 2 2 2 2 2 2 3 2 2 1 1
12 15 16 15 15 15 15 15 13 9 8 9 8 9 9 10 10 9 8 8 8 8 9 9 9 9 8 8 7 6 5 5 4 2 1 2 2 2 2 2 3 3 2 2
14 12 11 12 12 12 14 14 14 10 9 10 10 11 11 11 9 9 8 8 9 8 10 10 10 9 9 8 7 6 5 5 4 3 2 2 2 1 2 2 2 3 3 2
14 13 10 11 11 12 13 13 14 12 10 8 11 9 8 9 10 10 10 9 9 9 9 10 10 9 8 8 8 7 6 5 3 3 2 3 3 2 2 1 2 2 2 2
13 11 11 12 11 12 13 13 13 12 11 12 12 10 8 9 10 10 10 10 9 9 10 10 10 9 8 8 7 7 6 5 4 3 2 2 2 1 1 1 2 2 1 2
15 12 12 12 11 12 12 12 11 11 11 13 13 10 6 7 9 9 10 10 9 10 10 10 10 9 8 8 7 6 6 5 4 3 2 1 2 2 2 1 2 1 1 1
14 14 12 10 11 11 11 9 7 9 9 11 10 8 4 4 7 10 10 10 10 10 10 11 10 9 8 8 7 7 7 5 4 3 2 2 1 2 2 1 1 1 1 1
12 11 10 9 11 11 11 11 9 9 8 7 7 5 3 5 5 6 9 9 10 10 10 10 10 8 8 9 7 7 7 5 5 4 2 2 2 1 1 0 0 1 1 1
9 9 8 9 10 11 11 11 12 12 14 11 6 5 4 4 7 8 10 10 9 9 9 10 9 8 6 6 7 7 7 5 5 4 3 2 2 1 1 0 0 0 1 1
9 10 9 9 9 11 10 8 8 10 10 8 7 6 4 6 6 6 8 9 10 9 8 8 9 8 7 5 5 7 7 5 5 4 3 3 2 1 1 0 0 1 1 1
10 9 10 10 9 10 10 10 9 9 8 6 7 4 2 5 7 8 8 7 8 9 8 8 7 7 8 6 6 6 6 6 5 4 3 3 3 2 2 1 1 1 1 1
6 6 9 11 11 10 11 11 10 7 7 7 6 4 0 3 5 7 8 7 7 8 8 9 8 7 7 7 6 6 5 5 5 5 4 3 3 2 1 1 1 1 1 0
5 4 7 8 9 8 9 9 8 7 6 6 7 4 2 3 3 3 6 7 6 7 8 9 8 7 6 6 6 6 5 5 5 5 5 3 3 2 1 1 1 0 0 0
5 5 8 9 8 9 10 10 8 6 6 6 9 7 4 4 4 5 5 6 7 6 7 8 7 7 6 6 5 5 5 5 4 4 5 4 3 2 1 1 1 0 0 0
4 8 11 12 13 13 13 13 11 10 10 9 9 7 4 3 3 4 5 6 7 6 6 7 7 6 6 6 5 5 4 4 4 4 4 4 3 2 2 1 1 1 0 0
3 7 10 12 14 13 14 14 12 10 9 7 6 6 1 1 2 2 3 5 5 6 6 6 6 7 7 6 5 4 4 4 4 4 4 4 4 3 2 2 1 1 1 1
6 7 9 11 11 12 13 9 9 7 5 4 5 4 1 2 2 1 1 3 3 3 5 6 5 5 5 5 5 5 4 3 3 3 4 4 4 3 2 2 2 2 1 1
7 8 7 9 10 13 5 4 5 5 3 2 1 1 2 3 3 2 3 3 3 4 4 4 5 5 4 4 5 4 4 4 4 4 3 4 4 3 3 2 2 1 1 1
8 8 7 7 9 10 6 3 4 3 2 5 2 2 3 3 4 4 5 4 3 4 4 4 5 5 4 5 4 5 4 4 4 3 3 3 4 3 3 2 2 1 1 1
8 7 7 8 9 8 5 8 7 4 2 4 5 4 3 2 1 2 4 3 4 5 4 3 4 5 5 4 4 4 4 4 4 3 3 3 3 3 3 2 2 2 1 1
6 7 9 10 9 4 6 9 7 3 1 5 5 4 2 1 2 2 3 4 5 5 4 4 4 4 5 4 4 4 4 3 3 3 3 3 3 3 3 3 2 2 1 1
5 5 5 6 6 3 6 5 3 3 4 5 6 5 4 4 5 4 4 5 4 4 4 4 4 4 4 4 4 4 3 3 3 3 3 3 3 3 3 2 2 2 2 2
2 3 3 2 1 3 6 6 5 4 3 4 3 2 3 4 4 4 4 4 4 3 3 4 4 4 5 5 4 4 3 4 4 3 3 3 2 2 2 3 3 2 2 1
2 3 2 1 2 4 5 5 5 5 4 3 3 2 3 3 3 3 3 3 3 3 2 4 4 5 5 5 4 3 4 4 4 3 3 3 2 3 2 2 2 2 1 1
7 5 3 2 2 2 5 6 5 5 5 5 3 3 3 2 3 3 3 3 2 3 2 3 3 4 4 4 4 4 4 4 4 4 4 4 4 3 2 1 1 0 1 1
5 4 4 3 4 3 4 5 7 6 6 5 4 4 4 4 3 2 2 3 3 2 2 3 3 4 4 4 4 4 4 4 4 4 4 4 3 3 3 3 2 3 2 3
Wind_Direction
219 223 231 233 233 246 261 260 252 249 236 232 227 215 206 204 204 199 190 171 169 159 151 139 139 138 135 135 136 138 134 128 134 137 160 153 159 161 149 142 147 157 166 162
226 231 239 243 241 242 253 258 260 249 235 243 236 228 215 210 208 200 188 173 168 163 152 143 139 141 142 143 145 147 143 139 140 138 156 168 165 167 153 149 157 169 173 177
235 240 239 246 246 245 253 258 261 256 246 246 246 237 222 205 200 197 190 175 174 170 157 150 148 149 146 146 151 150 146 145 150 152 166 164 150 168 160 158 164 179 178 189
245 247 246 247 249 249 252 255 263 261 260 256 249 244 224 194 198 194 183 174 175 170 160 154 151 151 152 153 150 144 147 144 153 157 170 175 167 174 168 159 153 162 168 177
249 245 247 249 249 252 257 259 262 264 264 263 253 250 232 191 204 196 182 176 172 175 166 159 153 155 152 149 147 145 147 148 151 160 159 162 151 151 133 124 132 154 176 178
256 252 248 251 249 249 259 261 266 260 255 251 248 245 238 198 202 188 179 175 172 172 163 156 152 154 151 146 143 140 141 144 151 154 146 147 137 139 134 150 159 177 170 181
249 245 242 245 255 249 252 252 253 248 237 249 238 225 220 204 179 177 176 172 169 162 158 152 155 158 152 150 147 146 144 145 149 149 143 145 139 157 158 189 176 190 182 189
250 244 231 232 239 253 246 247 246 261 254 255 249 228 196 188 153 168 166 162 162 161 156 156 155 154 154 150 148 147 148 151 153 151 144 150 152 164 147 182 199 194 195 180
265 257 242 236 235 239 245 247 256 264 271 264 243 217 196 187 165 164 156 156 164 158 154 154 150 146 143 149 150 149 149 150 153 154 146 142 128 100 72 74 34 301 166 153
271 275 263 251 245 239 245 259 269 261 266 266 264 237 194 174 161 157 153 163 160 152 151 146 147 144 144 142 137 139 145 152 151 147 154 140 130 119 111 87 55 52 55 85
258 264 266 254 244 248 237 239 250 267 274 269 268 264 225 168 164 163 161 165 162 157 154 142 135 141 146 145 146 137 145 148 146 143 133 121 133 128 118 95 58 46 60 87
265 268 265 256 253 253 247 246 244 250 268 274 274 278 354 126 156 162 159 155 160 156 153 147 146 150 148 146 142 139 141 146 145 137 131 123 124 122 114 101 68 54 53 354
278 270 273 258 242 249 251 257 264 269 260 263 262 253 164 128 123 150 156 157 162 152 150 150 149 146 146 143 140 139 141 140 143 139 134 127 129 122 118 105 97 88 78 356
253 252 257 264 270 277 265 263 271 272 271 265 261 257 211 168 157 160 155 147 138 138 147 147 143 144 144 137 133 133 140 141 139 137 135 132 133 126 122 103 104 128 90 4
274 254 253 262 271 268 267 265 260 254 253 254 257 262 239 192 183 149 141 136 133 137 147 144 147 143 139 137 133 134 135 138 135 137 144 143 142 138 126 113 96 101 78 355
296 279 270 262 260 265 265 266 264 262 265 252 255 269 278 159 107 129 157 145 144 148 140 130 135 140 142 143 144 138 137 138 135 144 150 143 145 149 149 145 127 102 65 41
290 285 276 270 267 266 259 261 259 262 273 276 282 271 200 114 111 149 149 134 125 123 129 131 128 129 139 141 138 140 143 143 148 153 151 153 153 148 146 149 122 99 85 70
259 276 273 270 274 265 266 269 275 267 276 353 318 168 115 106 122 109 92 87 109 112 110 117 124 121 129 132 136 143 154 156 154 152 148 145 141 137 134 117 107 99 84 87
223 251 265 266 263 268 271 304 310 296 331 23 38 54 87 114 125 111 75 70 81 87 96 115 127 128 130 140 144 151 153 151 148 147 140 141 139 132 130 120 115 109 117 111
203 225 248 259 265 269 299 320 312 275 244 26 25 21 23 79 150 85 59 79 91 88 89 105 123 131 136 142 148 153 150 144 144 141 133 131 129 128 127 120 111 114 131 112
219 225 241 258 263 278 314 314 310 267 357 16 27 20 352 12 63 76 69 91 102 104 114 110 116 132 143 147 149 157 151 150 147 137 131 129 130 137 139 134 129 138 146 136
269 260 253 260 261 263 341 344 4 22 13 18 22 21 23 60 92 104 96 100 105 110 123 127 127 131 135 143 147 153 152 146 138 137 133 131 138 159 143 140 156 167 176 178
294 330 312 315 326 12 25 25 28 37 28 24 25 22 66 78 85 86 88 98 106 107 131 136 134 135 137 141 150 159 155 147 148 146 142 138 148 156 150 173 183 186 195 202
343 359 327 330 14 15 26 33 21 18 14 13 23 40 69 73 84 101 104 97 105 119 129 137 142 142 140 145 148 149 154 150 150 155 156 158 160 168 168 187 188 189 188 206
329 330 321 297 326 336 24 15 7 17 14 15 17 49 72 75 69 79 97 104 105 114 119 132 143 142 139 139 146 154 157 158 160 165 169 175 178 177 164 161 66 165 105 122
321 328 311 317 344 341 352 360 359 8 8 8 18 38 45 58 48 52 89 106 118 121 119 136 146 146 144 149 154 154 154 164 166 172 182 184 185 178 176 170 135 54 103 120